Home > Weather > Luton > Past weeks

Flag for United Kingdom Past Weather in Luton, England, United Kingdom — Yesterday and Last 2 Weeks

Now
70 °F

Mild.


Feels Like: 70 °F
Forecast: 55 / 72 °F
Wind: 8 mph from West

Location: Luton Airport

Current Time: Aug 26, 2016 at 11:35:15 AM

Latest Report: Aug 26, 2016 at 10:50 AM


Visibility: N/A

Pressure: 30.09 "Hg

Humidity: 53%

Dew Point: 52 °F

Location of LutonLocation

Past Weather in Luton — Graph

°F

Luton Temperature Yesterday

Maximum temperature yesterday: 77 °F (at 1:50 PM)
Minimum temperature yesterday: 63 °F (at 3:20 AM)
Average temperature yesterday: 69 °F

High & Low Weather Summary for the Past Weeks

 TemperatureHumidityPressure
High88 °F (Aug 24, 3:20 PM)100% (Aug 12, 4:20 AM)30.30 "Hg (Aug 12, 4:20 AM)
Low50 °F (Aug 15, 4:20 AM)35% (Aug 23, 4:50 PM)29.65 "Hg (Aug 19, 4:50 PM)
Average65 °F76%30.05 "Hg
* Reported Aug 11 10:20 AM — Aug 26 10:20 AM, Luton, Weather by CustomWeather, © 2016

Note: Actual official high and low records may vary slightly from our data, if they occured in-between our weather recording intervals... More about our weather records

Advertising

Luton Weather History for the Previous 24 Hours

Scroll right to see more
 ConditionsComfort  
Time TempWeatherWind HumidityBarometerVisibility
10:20 AM
Fri, Aug 26
68 °FPassing clouds.7 mph56%30.09 "HgN/A
9:50 AM66 °FScattered clouds.8 mph73%30.07 "HgN/A
9:20 AM64 °FPartly sunny.12 mph78%30.07 "HgN/A
8:50 AM66 °FScattered clouds.12 mph78%30.04 "HgN/A
8:20 AM66 °FScattered clouds.9 mph83%30.04 "HgN/A
7:50 AM64 °FMild.10 mph83%30.04 "HgN/A
7:20 AM64 °FMild.9 mph83%30.01 "HgN/A
6:50 AM63 °FPassing clouds.9 mph88%30.01 "HgN/A
6:20 AM63 °FPassing clouds.9 mph88%30.01 "HgN/A
5:50 AM61 °FMostly cloudy.8 mph94%30.01 "HgN/A
5:20 AM59 °FCool.6 mph94%29.98 "HgN/A
4:50 AM63 °FMild.7 mph94%29.98 "HgN/A
4:20 AM63 °FPassing clouds.10 mph94%29.98 "HgN/A
3:50 AM64 °FMild.6 mph88%29.98 "HgN/A
3:20 AM64 °FMild.3 mph88%29.98 "HgN/A
2:50 AM64 °FPassing clouds.6 mph88%29.98 "HgN/A
2:20 AM66 °FPartly cloudy.12 mph94%29.98 "Hg4 mi
1:50 AM66 °FFog.9 mph100%29.98 "Hg2 mi
1:20 AM68 °FFog.13 mph94%29.98 "Hg2 mi
12:50 AM68 °FFog.6 mph94%29.95 "Hg2 mi
12:20 AM66 °FFog.5 mph100%29.95 "Hg1 mi
11:50 PM
Thu, Aug 25
68 °FPassing clouds.5 mph94%29.95 "Hg4 mi
11:20 PM68 °FMild.3 mph94%29.95 "Hg4 mi
10:50 PM68 °FMild.3 mph94%29.92 "Hg6 mi
10:20 PM68 °FMild.3 mph88%29.95 "HgN/A
9:50 PM68 °FMild.3 mph94%29.95 "HgN/A
9:20 PM66 °FMild.1 mph94%29.95 "HgN/A
8:50 PM72 °FMild.1 mph78%29.95 "HgN/A
8:20 PM72 °FMild.3 mph83%29.95 "HgN/A
7:50 PM72 °FMild.3 mph78%29.95 "HgN/A
7:20 PM73 °FMild.2 mph78%29.95 "HgN/A
6:50 PM73 °FMild.2 mph74%29.95 "HgN/A
6:20 PM73 °FMild.5 mph74%29.95 "HgN/A
5:50 PM73 °FMild.7 mph74%29.95 "HgN/A
5:20 PM73 °FPassing clouds.6 mph78%29.95 "HgN/A
4:50 PM73 °FLight rain. Cloudy.6 mph74%29.95 "HgN/A
4:20 PM75 °FPassing clouds.7 mph69%29.95 "HgN/A
3:50 PM75 °FMild.3 mph69%29.98 "HgN/A
3:20 PM75 °FMild.3 mph69%29.98 "HgN/A
2:50 PM77 °FWarm.5 mph65%29.98 "HgN/A
2:20 PM75 °FMild.6 mph69%29.98 "HgN/A
1:50 PM77 °FWarm.6 mph65%29.98 "HgN/A
1:20 PM73 °FLight rain. Scattered clouds.3 mph74%29.98 "HgN/A
12:50 PM75 °FSunny.3 mph69%29.98 "Hg10 mi
12:20 PM75 °FMild.5 mph69%29.98 "HgN/A
11:50 AM73 °FMild.6 mph74%29.98 "HgN/A
11:20 AM73 °FMild.6 mph74%30.01 "HgN/A
Weather by CustomWeather, © 2016

See weather overviewHow to use our weather pages